[[{"header":{"parameterUnit":"m.s-1","parameterCategory":1,"la1":30.2991,"la2":30.254,"lo1":-89.0895,"lo2":-89.0444,"dy":0.0017,"dx":0.0017,"nx":28,"ny":28,"refTime":"2023-08-27T09:00:00:Z","depth":0,"parameterNumber":2,"parameterNumberName":"U-component_of_WINDS"},"data":[0,0,0,0,0,0,0,0,0,0,0,0,0,0,0,0,0,0,0,0,0,0,0,0,0,0,0,0,0,0,0,0,0,0,0,0,0,0,0,0,0,0,0,0,0,0,0,0,0,0,0,0,0,0,0,0,0,0,0.5882,0.5882,0,0.5898,0.5898,0.5898,0.5884,0.5884,0.5883,0.5883,0.59,0.5901,0.5902,0,0,0,0,0,0,0,0,0,0,0,0,0,0.584,0.5841,0.5882,0.5882,0.5883,0.5898,0.5898,0.5898,0.5884,0.5884,0.5883,0.5882,0.5899,0.5901,0.5902,0,0,0,0,0,0,0,0,0,0,0,0,0,0.5858,0.5842,0.5882,0.5877,0.5877,0.5898,0.5898,0.5898,0.5885,0.5884,0.5883,0.5882,0.5899,0.59,0.5902,0.5928,0,0,0.5906,0.5907,0,0,0,0,0,0,0,0,0.5857,0.5859,0.5878,0.5878,0.5878,0.5888,0.589,0.5909,0.5885,0.5882,0.5883,0.5882,0.5897,0.5898,0.5903,0.5929,0.593,0.5907,0.5908,0.5908,0.5909,0,0,0,0,0,0,0,0.5856,0.5859,0.5888,0.5878,0.5878,0.5875,0.5876,0.5893,0.5894,0.5882,0.5881,0.5883,0.5896,0.5902,0.5903,0.593,0.5907,0.5908,0.5909,0.5909,0.5978,0.5979,0,0,0,0,0,0,0.5855,0.5858,0.5888,0.5889,0.5865,0.5876,0.5878,0.5886,0.5894,0.5894,0.5884,0.5882,0.59,0.5902,0.5904,0.5935,0.5908,0.591,0.591,0.5978,0.5979,0.598,0,0,0,0,0,0,0.5854,0.5858,0.5887,0.5873,0.5877,0.5878,0.5887,0.5886,0.5892,0.5895,0.5895,0.5889,0.5899,0.5902,0.5922,0.5936,0.591,0.5912,0.5976,0.5978,0.5979,0.5998,0,0,0,0,0,0,0.5853,0.5857,0.5867,0.5873,0.5877,0.5905,0.5888,0.5887,0.5894,0.5893,0.59,0.59,0.5899,0.592,0.5924,0.5937,0.5913,0.5975,0.5977,0.5979,0.5997,0.6,0.6003,0,0,0,0,0,0.5851,0.5872,0.5868,0.5872,0.589,0.5906,0.5908,0.5906,0.5895,0.5906,0.5908,0.59,0.5934,0.5922,0.5926,0.5941,0.5974,0.5977,0.5979,0.5995,0.6,0.6003,0,0,0,0,0,0,0.5869,0.5873,0.5868,0.5892,0.5899,0.5904,0.5916,0.5911,0.5921,0.5919,0.5915,0.5917,0.5938,0.5941,0.5929,0.5966,0.5952,0.5955,0.5964,0.5968,0.5971,0.597,0.5914,0,0,0,0,0,0.5875,0.5888,0.5891,0.5912,0.5915,0.5915,0.5922,0.5919,0.5926,0.5929,0.5933,0.594,0.5952,0.596,0.5971,0.5997,0.5998,0.6009,0.6012,0.6015,0.6017,0.6031,0.6035,0.5987,0.5987,0.5987,0,0,0.5889,0.5893,0.5901,0.5915,0.592,0.5933,0.5918,0.5933,0.5942,0.5932,0.5951,0.5954,0.5961,0.5984,0.5995,0.5988,0.6031,0.6017,0.602,0.6021,0.6033,0.6038,0.6042,0.5988,0.5988,0.5988,0,0,0.592,0.5925,0.5942,0.5947,0.5954,0.5954,0.5958,0.5964,0.5966,0.5985,0.5977,0.5989,0.601,0.6015,0.6021,0.6054,0.6048,0.6058,0.6076,0.6089,0.6093,0.6096,0.6108,0.6112,0.6061,0.6061,0.6061,0,0.5936,0.5956,0.5952,0.5967,0.5973,0.5964,0.5981,0.5987,0.5998,0.6002,0.5994,0.602,0.6025,0.6049,0.6057,0.6062,0.6066,0.6057,0.6093,0.6096,0.6099,0.611,0.6115,0.6062,0.6062,0.6062,0.6062,0,0.5975,0.5988,0.6002,0.6012,0.602,0.6036,0.6035,0.6043,0.604,0.604,0.606,0.6065,0.6077,0.6082,0.6079,0.6106,0.6101,0.6093,0.6079,0.6105,0.6115,0.6119,0.6064,0.6063,0.6063,0.6063,0,0,0.6018,0.6025,0.603,0.6035,0.6042,0.6053,0.6068,0.608,0.6087,0.6095,0.6108,0.6126,0.6118,0.6124,0.6122,0.6133,0.6159,0.6123,0.6123,0.613,0.6188,0.6194,0.6199,0.6154,0.6155,0.6156,0.6187,0,0.6049,0.6076,0.6073,0.6099,0.6112,0.6103,0.6117,0.6123,0.6124,0.6134,0.6135,0.6148,0.6137,0.6141,0.6151,0.6153,0.617,0.6151,0.6166,0.6167,0.6165,0.6204,0.6211,0.624,0.6191,0.6192,0.6192,0,0.609,0.6098,0.6126,0.6131,0.6136,0.6148,0.6158,0.6169,0.6175,0.6175,0.6182,0.6177,0.6193,0.6179,0.62,0.6187,0.6193,0.6195,0.6196,0.6197,0.6181,0.6206,0.6249,0.6254,0.6199,0.6198,0.6198,0,0.6118,0.6137,0.6155,0.6159,0.6166,0.6175,0.6178,0.6184,0.619,0.6199,0.6204,0.6214,0.622,0.6228,0.6227,0.6216,0.6249,0.6234,0.6249,0.6249,0.6256,0.6256,0.6301,0.626,0.626,0.626,0.626,0,0.6153,0.617,0.6168,0.6179,0.6198,0.6194,0.6213,0.6215,0.622,0.6232,0.6225,0.6236,0.6233,0.6244,0.6242,0.626,0.6263,0.6263,0.6263,0.6264,0.6264,0.6268,0.6266,0.6261,0.6261,0.6261,0.6261,0,0.6188,0.6187,0.6207,0.6211,0.6213,0.6226,0.623,0.6241,0.6241,0.6256,0.6259,0.626,0.6272,0.6271,0.6285,0.6284,0.6306,0.6304,0.6304,0.6303,0.6318,0.6317,0.6367,0.6373,0.6329,0.633,0.633,0,0.621,0.6223,0.6229,0.6236,0.624,0.6252,0.6258,0.6255,0.6263,0.6271,0.6281,0.6292,0.6302,0.6322,0.6324,0.6334,0.6332,0.6349,0.6333,0.6334,0.6332,0.6331,0.6332,0.6352,0.6352,0.6352,0.6353,0,0.625,0.6249,0.6259,0.6269,0.6278,0.6286,0.6293,0.6299,0.6296,0.6305,0.6318,0.6325,0.6339,0.6351,0.6361,0.6364,0.6358,0.6358,0.6362,0.6363,0.6362,0.6362,0.6312,0.6356,0.6356,0.6356,0.6356,0.6355,0.628,0.629,0.6296,0.6307,0.6312,0.6319,0.6329,0.6331,0.6341,0.6352,0.635,0.6364,0.637,0.6382,0.6387,0.6398,0.6391,0.6397,0.6399,0.64,0.6402,0.6361,0.6399,0.6399,0.6399,0.6399,0.6399,0,0.6319,0.6322,0.6333,0.6342,0.6351,0.6345,0.6352,0.636,0.6373,0.6379,0.6388,0.6402,0.6413,0.6416,0.6426,0.6434,0.6432,0.6437,0.6437,0.6437,0.6407,0.6402,0.6439,0.6439,0.6439,0.6439,0.6439,0.6439,0.634,0.6358,0.6358,0.6378,0.6381,0.6394,0.6399,0.6405,0.641,0.6426,0.6435,0.6437,0.6441,0.6452,0.6462,0.6462,0.6467,0.6473,0.6472,0.6444,0.644,0.6436,0.6431,0.6474,0.6474,0.6502,0.6502,0.6503]},{"header":{"parameterUnit":"m.s-1","parameterCategory":1,"la1":30.2991,"la2":30.254,"lo1":-89.0895,"lo2":-89.0444,"dy":0.0017,"dx":0.0017,"nx":28,"ny":28,"refTime":"2023-08-27T09:00:00:Z","depth":0,"parameterNumber":3,"parameterNumberName":"V-component_of_WINDS"},"data":[0,0,0,0,0,0,0,0,0,0,0,0,0,0,0,0,0,0,0,0,0,0,0,0,0,0,0,0,0,0,0,0,0,0,0,0,0,0,0,0,0,0,0,0,0,0,0,0,0,0,0,0,0,0,0,0,0,0,3.3591,3.3591,0,3.3648,3.3649,3.365,3.3657,3.3656,3.3656,3.3655,3.371,3.3712,3.3714,0,0,0,0,0,0,0,0,0,0,0,0,0,3.3482,3.3484,3.359,3.3591,3.3592,3.3648,3.3649,3.365,3.3657,3.3656,3.3656,3.3655,3.3709,3.3711,3.3714,0,0,0,0,0,0,0,0,0,0,0,0,0,3.3533,3.3485,3.359,3.3602,3.3604,3.3648,3.3649,3.365,3.3657,3.3656,3.3655,3.3655,3.3708,3.3711,3.3714,3.3749,0,0,3.3723,3.3724,0,0,0,0,0,0,0,0,3.353,3.3537,3.36,3.3602,3.3604,3.3645,3.3631,3.3683,3.3657,3.3637,3.3655,3.3654,3.3688,3.3693,3.3705,3.3751,3.3754,3.3723,3.3725,3.3726,3.3727,0,0,0,0,0,0,0,3.3527,3.3535,3.3613,3.3601,3.3603,3.3603,3.361,3.3641,3.3666,3.3638,3.3639,3.3646,3.3689,3.3703,3.3707,3.3755,3.3723,3.3726,3.3728,3.3729,3.3832,3.3833,0,0,0,0,0,0,3.3522,3.3532,3.3611,3.3615,3.3564,3.3606,3.3613,3.3632,3.3666,3.3671,3.3647,3.3646,3.3698,3.3703,3.3709,3.3752,3.3726,3.3729,3.3731,3.3831,3.3832,3.3833,0,0,0,0,0,0,3.3519,3.3529,3.3609,3.3574,3.3584,3.3609,3.363,3.3634,3.3647,3.3672,3.3677,3.3656,3.3698,3.3705,3.3739,3.3754,3.3731,3.3733,3.383,3.3831,3.3833,3.3838,0,0,0,0,0,0,3.3516,3.3528,3.3542,3.3574,3.3586,3.364,3.3631,3.3635,3.3653,3.3653,3.3682,3.3686,3.3697,3.3735,3.3742,3.3758,3.3736,3.3828,3.383,3.3832,3.3837,3.384,3.3842,0,0,0,0,0,3.3512,3.354,3.3543,3.3552,3.3605,3.3641,3.3647,3.3661,3.3654,3.3668,3.3684,3.3685,3.3751,3.3738,3.3747,3.3763,3.3828,3.383,3.3832,3.3836,3.3839,3.3842,0,0,0,0,0,0,3.3508,3.3545,3.3548,3.3587,3.3611,3.3642,3.366,3.3664,3.3689,3.3688,3.3702,3.3709,3.3743,3.3756,3.3741,3.3798,3.3789,3.3792,3.3788,3.3792,3.3795,3.3791,3.3738,0,0,0,0,0,3.3512,3.354,3.357,3.3601,3.3613,3.3635,3.3651,3.366,3.3684,3.3693,3.3712,3.3734,3.376,3.3777,3.3802,3.3839,3.3845,3.3854,3.3857,3.3859,3.3862,3.3883,3.3887,3.384,3.384,3.384,0,0,3.352,3.3543,3.3559,3.3601,3.3621,3.3648,3.3643,3.3672,3.3692,3.3697,3.3732,3.3746,3.3772,3.3808,3.3825,3.382,3.3877,3.3862,3.3863,3.3865,3.3885,3.389,3.3894,3.3842,3.3841,3.3841,0,0,3.3548,3.3569,3.3598,3.3618,3.3648,3.3662,3.3669,3.3699,3.371,3.3745,3.375,3.3773,3.3817,3.3835,3.385,3.3886,3.3888,3.3894,3.3908,3.3928,3.3931,3.3935,3.3948,3.3952,3.3897,3.3897,3.3897,0,3.3554,3.3596,3.3612,3.3641,3.3659,3.3667,3.3696,3.3714,3.375,3.3762,3.3757,3.3813,3.3831,3.3871,3.388,3.3892,3.39,3.3891,3.393,3.3933,3.3937,3.3949,3.3954,3.3897,3.3897,3.3897,3.3897,0,3.3602,3.3631,3.3651,3.3687,3.3707,3.3736,3.3755,3.3773,3.378,3.3795,3.383,3.3852,3.3882,3.3892,3.3898,3.3933,3.393,3.3927,3.3917,3.3941,3.3953,3.3958,3.3898,3.3898,3.3898,3.3898,0,0,3.3629,3.3674,3.3681,3.3698,3.3732,3.3754,3.3783,3.3814,3.3829,3.3854,3.3878,3.3915,3.3913,3.393,3.3939,3.3956,3.3984,3.3951,3.3952,3.3957,3.4024,3.4026,3.4031,3.3985,3.3986,3.3987,3.4022,0,3.3661,3.3715,3.373,3.3775,3.3802,3.381,3.3835,3.3858,3.3872,3.3896,3.391,3.3937,3.3932,3.3943,3.3961,3.3977,3.3997,3.3974,3.4007,3.4008,3.4,3.4038,3.404,3.4072,3.4026,3.4027,3.4028,0,3.3706,3.3733,3.3781,3.3813,3.3824,3.3847,3.3877,3.39,3.3925,3.3934,3.3954,3.3961,3.399,3.3979,3.4019,3.4003,3.4017,3.4027,3.4029,3.4032,3.4019,3.4042,3.4082,3.4087,3.4035,3.4035,3.4034,0,3.3721,3.377,3.3805,3.3819,3.3856,3.3872,3.3887,3.3913,3.393,3.3956,3.3967,3.3995,3.401,3.4031,3.4045,3.4035,3.4084,3.4073,3.4091,3.4091,3.4101,3.41,3.4144,3.411,3.411,3.4109,3.4109,0,3.3756,3.3785,3.3813,3.3834,3.3867,3.3883,3.3915,3.393,3.3953,3.3977,3.3984,3.4006,3.4023,3.4047,3.4058,3.409,3.4096,3.4104,3.4106,3.4103,3.4102,3.4113,3.4111,3.4111,3.411,3.411,3.411,0,3.3779,3.3798,3.3837,3.387,3.3878,3.3901,3.3928,3.3949,3.3963,3.3993,3.4001,3.4023,3.4052,3.4068,3.4104,3.4111,3.4146,3.4147,3.4138,3.4139,3.4156,3.4155,3.4209,3.4217,3.4177,3.4177,3.4177,0,3.38,3.3823,3.3858,3.3876,3.3892,3.392,3.3939,3.3955,3.3974,3.4006,3.4022,3.4052,3.4076,3.4122,3.414,3.4167,3.4169,3.4186,3.4173,3.417,3.417,3.4169,3.4171,3.4189,3.4189,3.4189,3.4189,0,3.3835,3.3844,3.3872,3.3903,3.3925,3.395,3.3974,3.3988,3.4008,3.4029,3.406,3.4079,3.4116,3.4145,3.4174,3.4188,3.4192,3.4193,3.4199,3.4196,3.419,3.4194,3.4145,3.4192,3.4192,3.4192,3.4192,3.4191,3.3858,3.3879,3.3907,3.3938,3.3958,3.3981,3.4003,3.4021,3.4047,3.408,3.4087,3.4119,3.4144,3.4184,3.4199,3.4224,3.422,3.4228,3.423,3.4232,3.4233,3.4186,3.4229,3.4229,3.4229,3.4228,3.4228,0,3.3894,3.3913,3.3941,3.3976,3.4,3.4003,3.403,3.405,3.4078,3.4102,3.4127,3.4161,3.419,3.4211,3.424,3.4255,3.4257,3.4262,3.4261,3.4264,3.4234,3.4227,3.426,3.426,3.426,3.426,3.426,3.426,3.3916,3.3952,3.3964,3.401,3.4028,3.4061,3.4077,3.4097,3.4117,3.4156,3.418,3.4194,3.4217,3.4247,3.4273,3.4278,3.4289,3.4293,3.4298,3.427,3.4266,3.4263,3.4256,3.4295,3.4295,3.4327,3.4327,3.4327]}]]